{"data":{"norad_id":66832,"intl_designator":"2025-280M","name":"STARLINK-35768","alt_names":[],"object_type":"PAYLOAD","status":"ACTIVE","operator":null,"country":"US","launch_date":"2025-12-02","launch_site_code":"AFWTR","launch_vehicle":null,"mission":null,"orbit_class":"UNKNOWN","rcs_meters":null,"size_class":null,"mass_kg":null,"dimensions":null,"purposes":["comms"],"wikipedia_slug":null,"has_3d_model":false,"image_url":null,"decayed_at":null,"tle_current":{"epoch":"2026-09-20T13:22:53.816448Z","epoch_age_seconds":79095,"freshness":"FRESH","line1":"1 66832U 25280M   26263.55756732  .00004842  00000+0  41315-3 0  9995","line2":"2 66832  70.0012 203.1869 0003009 271.0893  88.9922 14.98345279 45265","mean_motion":14.98345279,"eccentricity":0.0003009,"inclination_deg":70.0012,"raan_deg":203.1869,"arg_perigee_deg":271.0893,"mean_anomaly_deg":88.9922,"bstar":0.00041315,"rev_number":4526,"period_min":96.106019098686,"perigee_km":569.91734347503,"apogee_km":574.09994112256,"semimajor_km":6950.1456422988,"source":"CELESTRAK","updated_at":"2026-09-21T09:00:36.021787Z"}}}